Time,TemperatureF,DewpointF,PressureIn,WindDirection,WindDirectionDegrees,WindSpeedMPH,WindSpeedGustMPH,Humidity,HourlyPrecipIn,Conditions,Clouds,dailyrainin,SoftwareType,DateUTC
2013-09-11 00:00:00,75.7,66.4,30.02,NNW,339,0.0,0.0,73,0.00,,,0.00,Wunderground v.1.15,2013-09-11 05:00:00,
2013-09-11 00:05:00,75.4,66.5,30.01,NNW,339,0.0,0.0,74,0.00,,,0.00,Wunderground v.1.15,2013-09-11 05:05:00,
2013-09-11 00:15:00,74.5,66.4,30.01,NNW,339,0.0,0.0,76,0.00,,,0.00,Wunderground v.1.15,2013-09-11 05:15:00,
2013-09-11 00:25:00,73.9,65.9,30.01,NNW,338,0.0,0.0,76,0.00,,,0.00,Wunderground v.1.15,2013-09-11 05:25:00,
2013-09-11 00:40:00,74.2,66.1,30.01,NNW,339,0.0,0.0,76,0.00,,,0.00,Wunderground v.1.15,2013-09-11 05:40:00,
2013-09-11 00:45:00,74.2,65.8,30.01,NNW,339,0.0,0.0,75,0.00,,,0.00,Wunderground v.1.15,2013-09-11 05:45:00,
2013-09-11 00:50:00,74.2,65.8,30.02,NNW,339,0.0,0.0,75,0.00,,,0.00,Wunderground v.1.15,2013-09-11 05:50:00,
2013-09-11 00:55:00,74.4,66.0,30.02,NNW,339,0.0,0.0,75,0.00,,,0.00,Wunderground v.1.15,2013-09-11 05:55:00,
2013-09-11 01:05:00,74.5,66.1,30.02,NNW,338,0.0,0.0,75,0.00,,,0.00,Wunderground v.1.15,2013-09-11 06:05:00,
2013-09-11 01:15:00,74.4,65.6,30.02,NNW,339,0.0,0.0,74,0.00,,,0.00,Wunderground v.1.15,2013-09-11 06:15:00,
2013-09-11 01:25:00,74.3,65.9,30.01,NNW,339,0.0,0.0,75,0.00,,,0.00,Wunderground v.1.15,2013-09-11 06:25:00,
2013-09-11 01:30:00,74.2,65.4,30.02,NNW,339,0.0,0.0,74,0.00,,,0.00,Wunderground v.1.15,2013-09-11 06:30:00,
2013-09-11 01:35:00,74.1,65.3,30.02,NNW,339,0.0,0.0,74,0.00,,,0.00,Wunderground v.1.15,2013-09-11 06:35:00,
2013-09-11 01:40:00,74.2,65.4,30.02,North,355,0.0,0.0,74,0.00,,,0.00,Wunderground v.1.15,2013-09-11 06:40:00,
2013-09-11 01:45:00,74.4,65.2,30.02,North,355,0.0,0.0,73,0.00,,,0.00,Wunderground v.1.15,2013-09-11 06:45:00,
2013-09-11 01:50:00,74.7,65.1,30.02,NNE,22,0.0,0.0,72,0.00,,,0.00,Wunderground v.1.15,2013-09-11 06:50:00,
2013-09-11 01:55:00,75.1,65.1,30.02,NNE,28,0.0,0.0,71,0.00,,,0.00,Wunderground v.1.15,2013-09-11 06:55:00,
2013-09-11 02:00:00,75.3,65.2,30.02,NNE,28,0.0,0.0,71,0.00,,,0.00,Wunderground v.1.15,2013-09-11 07:00:00,
2013-09-11 02:05:00,75.4,65.3,30.01,NNE,29,0.0,0.0,71,0.00,,,0.00,Wunderground v.1.15,2013-09-11 07:05:00,
2013-09-11 02:15:00,75.4,65.3,30.01,NNE,29,0.0,0.0,71,0.00,,,0.00,Wunderground v.1.15,2013-09-11 07:15:00,
2013-09-11 02:20:00,75.3,65.2,30.02,NNE,29,0.0,0.0,71,0.00,,,0.00,Wunderground v.1.15,2013-09-11 07:20:00,
2013-09-11 02:30:00,74.9,65.3,30.02,NNE,29,0.0,0.0,72,0.00,,,0.00,Wunderground v.1.15,2013-09-11 07:30:00,
2013-09-11 02:35:00,74.7,65.1,30.02,NNE,29,0.0,0.0,72,0.00,,,0.00,Wunderground v.1.15,2013-09-11 07:35:00,
2013-09-11 02:45:00,74.5,65.3,30.02,NNE,29,0.0,0.0,73,0.00,,,0.00,Wunderground v.1.15,2013-09-11 07:45:00,
2013-09-11 02:55:00,74.4,65.2,30.02,NNE,29,0.0,0.0,73,0.00,,,0.00,Wunderground v.1.15,2013-09-11 07:55:00,
2013-09-11 03:00:00,74.1,65.3,30.02,NNE,29,0.0,0.0,74,0.00,,,0.00,Wunderground v.1.15,2013-09-11 08:00:00,
2013-09-11 03:05:00,73.3,64.9,30.02,NNE,29,0.0,0.0,75,0.00,,,0.00,Wunderground v.1.15,2013-09-11 08:05:00,
2013-09-11 03:15:00,72.4,64.8,30.03,NNE,29,0.0,0.0,77,0.00,,,0.00,Wunderground v.1.15,2013-09-11 08:15:00,
2013-09-11 03:25:00,71.7,64.5,30.03,NNE,29,0.0,0.0,78,0.00,,,0.00,Wunderground v.1.15,2013-09-11 08:25:00,
2013-09-11 03:30:00,71.5,64.6,30.03,NNE,29,0.0,0.0,79,0.00,,,0.00,Wunderground v.1.15,2013-09-11 08:30:00,
2013-09-11 03:35:00,71.0,64.5,30.03,NNE,29,0.0,0.0,80,0.00,,,0.00,Wunderground v.1.15,2013-09-11 08:35:00,
2013-09-11 03:40:00,70.8,64.7,30.03,NNE,29,0.0,0.0,81,0.00,,,0.00,Wunderground v.1.15,2013-09-11 08:40:00,
2013-09-11 03:45:00,70.8,64.7,30.03,NNE,29,0.0,0.0,81,0.00,,,0.00,Wunderground v.1.15,2013-09-11 08:45:00,
2013-09-11 03:55:00,70.3,64.5,30.03,NNE,29,0.0,0.0,82,0.00,,,0.00,Wunderground v.1.15,2013-09-11 08:55:00,
2013-09-11 04:00:00,70.1,64.3,30.03,NNE,29,0.0,0.0,82,0.00,,,0.00,Wunderground v.1.15,2013-09-11 09:00:00,
2013-09-11 04:05:00,69.9,64.2,30.03,NNE,29,0.0,0.0,82,0.00,,,0.00,Wunderground v.1.15,2013-09-11 09:05:00,
2013-09-11 04:15:00,69.7,64.0,30.02,NNE,29,0.0,0.0,82,0.00,,,0.00,Wunderground v.1.15,2013-09-11 09:15:00,
2013-09-11 04:25:00,69.4,64.0,30.02,NNE,29,0.0,0.0,83,0.00,,,0.00,Wunderground v.1.15,2013-09-11 09:25:00,
2013-09-11 04:30:00,69.1,63.7,30.02,NNE,29,0.0,0.0,83,0.00,,,0.00,Wunderground v.1.15,2013-09-11 09:30:00,
2013-09-11 04:35:00,68.8,63.8,30.02,NNE,29,0.0,0.0,84,0.00,,,0.00,Wunderground v.1.15,2013-09-11 09:35:00,
2013-09-11 04:45:00,68.4,63.7,30.03,NNE,29,0.0,0.0,85,0.00,,,0.00,Wunderground v.1.15,2013-09-11 09:45:00,
2013-09-11 04:50:00,68.2,63.5,30.03,NNE,29,0.0,0.0,85,0.00,,,0.00,Wunderground v.1.15,2013-09-11 09:50:00,
2013-09-11 04:55:00,68.1,63.4,30.03,NNE,29,0.0,0.0,85,0.00,,,0.00,Wunderground v.1.15,2013-09-11 09:55:00,
2013-09-11 05:00:00,68.0,63.7,30.04,NNE,29,0.0,0.0,86,0.00,,,0.00,Wunderground v.1.15,2013-09-11 10:00:00,
2013-09-11 05:05:00,67.9,63.6,30.04,NNE,29,0.0,0.0,86,0.00,,,0.00,Wunderground v.1.15,2013-09-11 10:05:00,
2013-09-11 05:15:00,67.7,63.4,30.04,NNE,29,0.0,0.0,86,0.00,,,0.00,Wunderground v.1.15,2013-09-11 10:15:00,
2013-09-11 05:20:00,67.6,63.3,30.03,NNE,29,0.0,0.0,86,0.00,,,0.00,Wunderground v.1.15,2013-09-11 10:20:00,
2013-09-11 05:25:00,67.5,63.5,30.03,NNE,29,0.0,0.0,87,0.00,,,0.00,Wunderground v.1.15,2013-09-11 10:25:00,
2013-09-11 05:30:00,67.5,63.5,30.03,NNE,29,0.0,0.0,87,0.00,,,0.00,Wunderground v.1.15,2013-09-11 10:30:00,
2013-09-11 05:35:00,67.5,63.8,30.03,NNE,29,0.0,0.0,88,0.00,,,0.00,Wunderground v.1.15,2013-09-11 10:35:00,
2013-09-11 05:40:00,67.5,63.8,30.04,NNE,29,0.0,0.0,88,0.00,,,0.00,Wunderground v.1.15,2013-09-11 10:40:00,
2013-09-11 05:45:00,67.4,63.7,30.04,NNE,29,0.0,0.0,88,0.00,,,0.00,Wunderground v.1.15,2013-09-11 10:45:00,
2013-09-11 05:55:00,67.2,63.5,30.04,NNE,29,0.0,0.0,88,0.00,,,0.00,Wunderground v.1.15,2013-09-11 10:55:00,
2013-09-11 06:00:00,67.3,63.6,30.05,NNE,29,0.0,0.0,88,0.00,,,0.00,Wunderground v.1.15,2013-09-11 11:00:00,
2013-09-11 06:05:00,67.4,63.7,30.05,NNE,29,0.0,0.0,88,0.00,,,0.00,Wunderground v.1.15,2013-09-11 11:05:00,
2013-09-11 06:15:00,67.4,63.7,30.06,NNE,29,0.0,0.0,88,0.00,,,0.00,Wunderground v.1.15,2013-09-11 11:15:00,
2013-09-11 06:25:00,67.5,63.8,30.07,NNE,29,0.0,0.0,88,0.00,,,0.00,Wunderground v.1.15,2013-09-11 11:25:00,
2013-09-11 06:30:00,67.5,63.8,30.07,NNE,29,0.0,0.0,88,0.00,,,0.00,Wunderground v.1.15,2013-09-11 11:30:00,
2013-09-11 06:35:00,67.5,63.5,30.07,NNE,29,0.0,0.0,87,0.00,,,0.00,Wunderground v.1.15,2013-09-11 11:35:00,
2013-09-11 06:40:00,67.5,63.5,30.08,NNE,29,0.0,0.0,87,0.00,,,0.00,Wunderground v.1.15,2013-09-11 11:40:00,
2013-09-11 06:45:00,67.6,63.6,30.08,NNE,29,0.0,0.0,87,0.00,,,0.00,Wunderground v.1.15,2013-09-11 11:45:00,
2013-09-11 06:50:00,67.8,63.8,30.08,ESE,123,0.0,0.0,87,0.00,,,0.00,Wunderground v.1.15,2013-09-11 11:50:00,
2013-09-11 06:55:00,68.0,64.0,30.08,ESE,123,0.0,0.0,87,0.00,,,0.00,Wunderground v.1.15,2013-09-11 11:55:00,
2013-09-11 07:00:00,68.3,64.3,30.08,ESE,123,0.0,0.0,87,0.00,,,0.00,Wunderground v.1.15,2013-09-11 12:00:00,
2013-09-11 07:05:00,68.8,64.4,30.08,ESE,122,0.0,0.0,86,0.00,,,0.00,Wunderground v.1.15,2013-09-11 12:05:00,
2013-09-11 07:15:00,69.5,64.5,30.09,NNE,22,0.0,0.0,84,0.00,,,0.00,Wunderground v.1.15,2013-09-11 12:15:00,
2013-09-11 07:20:00,69.8,64.4,30.09,NNE,21,0.0,0.0,83,0.00,,,0.00,Wunderground v.1.15,2013-09-11 12:20:00,
2013-09-11 07:25:00,70.0,64.2,30.09,NNE,21,0.0,0.0,82,0.00,,,0.00,Wunderground v.1.15,2013-09-11 12:25:00,
2013-09-11 07:35:00,70.4,63.9,30.09,North,5,0.0,0.0,80,0.00,,,0.00,Wunderground v.1.15,2013-09-11 12:35:00,
2013-09-11 07:40:00,70.6,63.8,30.08,North,5,0.0,0.0,79,0.00,,,0.00,Wunderground v.1.15,2013-09-11 12:40:00,
2013-09-11 07:45:00,70.6,63.4,30.08,North,5,0.0,0.0,78,0.00,,,0.00,Wunderground v.1.15,2013-09-11 12:45:00,
2013-09-11 07:50:00,70.6,63.4,30.08,North,360,0.0,0.0,78,0.00,,,0.00,Wunderground v.1.15,2013-09-11 12:50:00,
2013-09-11 07:55:00,70.7,63.5,30.08,North,360,0.0,0.0,78,0.00,,,0.00,Wunderground v.1.15,2013-09-11 12:55:00,
2013-09-11 08:05:00,71.3,63.7,30.08,North,5,0.0,0.0,77,0.00,,,0.00,Wunderground v.1.15,2013-09-11 13:05:00,
2013-09-11 08:15:00,71.9,63.9,30.08,East,86,0.0,0.0,76,0.00,,,0.00,Wunderground v.1.15,2013-09-11 13:15:00,
2013-09-11 08:20:00,72.3,63.9,30.08,ENE,76,0.0,0.0,75,0.00,,,0.00,Wunderground v.1.15,2013-09-11 13:20:00,
2013-09-11 08:30:00,73.2,64.4,30.08,ENE,78,0.0,0.0,74,0.00,,,0.00,Wunderground v.1.15,2013-09-11 13:30:00,
2013-09-11 08:35:00,73.5,63.9,30.08,East,84,0.0,0.0,72,0.00,,,0.00,Wunderground v.1.15,2013-09-11 13:35:00,
2013-09-11 08:40:00,73.9,64.7,30.07,East,84,0.0,0.0,73,0.00,,,0.00,Wunderground v.1.15,2013-09-11 13:40:00,
2013-09-11 08:45:00,74.6,64.6,30.07,ENE,66,0.0,0.0,71,0.00,,,0.00,Wunderground v.1.15,2013-09-11 13:45:00,
2013-09-11 08:50:00,74.9,64.0,30.07,ENE,71,0.0,0.0,69,0.00,,,0.00,Wunderground v.1.15,2013-09-11 13:50:00,
2013-09-11 08:55:00,74.9,64.5,30.07,ENE,71,0.0,0.0,70,0.00,,,0.00,Wunderground v.1.15,2013-09-11 13:55:00,
2013-09-11 09:00:00,74.8,64.4,30.07,ENE,71,0.0,0.0,70,0.00,,,0.00,Wunderground v.1.15,2013-09-11 14:00:00,
2013-09-11 09:05:00,74.9,64.9,30.08,ENE,71,0.0,0.0,71,0.00,,,0.00,Wunderground v.1.15,2013-09-11 14:05:00,
2013-09-11 09:15:00,75.0,65.8,30.08,ENE,71,0.0,0.0,73,0.00,,,0.00,Wunderground v.1.15,2013-09-11 14:15:00,
2013-09-11 09:20:00,75.1,65.5,30.08,ENE,71,0.0,0.0,72,0.00,,,0.00,Wunderground v.1.15,2013-09-11 14:20:00,
2013-09-11 09:25:00,75.4,65.3,30.07,ENE,71,0.0,0.0,71,0.00,,,0.00,Wunderground v.1.15,2013-09-11 14:25:00,
2013-09-11 09:40:00,77.1,65.7,30.08,East,83,0.0,0.0,68,0.00,,,0.00,Wunderground v.1.15,2013-09-11 14:40:00,
2013-09-11 09:45:00,77.7,66.3,30.08,East,84,0.0,0.0,68,0.00,,,0.00,Wunderground v.1.15,2013-09-11 14:45:00,
2013-09-11 09:50:00,78.1,65.8,30.08,ENE,72,0.0,0.0,66,0.00,,,0.00,Wunderground v.1.15,2013-09-11 14:50:00,
2013-09-11 10:00:00,78.7,66.8,30.09,ENE,74,0.0,0.0,67,0.00,,,0.00,Wunderground v.1.15,2013-09-11 15:00:00,
2013-09-11 10:05:00,79.3,66.5,30.09,ENE,72,0.0,0.0,65,0.00,,,0.00,Wunderground v.1.15,2013-09-11 15:05:00,
2013-09-11 10:15:00,79.6,66.8,30.08,ENE,74,0.0,0.0,65,0.00,,,0.00,Wunderground v.1.15,2013-09-11 15:15:00,
2013-09-11 10:20:00,80.4,68.0,30.08,ENE,76,0.0,0.0,66,0.00,,,0.00,Wunderground v.1.15,2013-09-11 15:20:00,
2013-09-11 10:25:00,81.1,68.2,30.08,ENE,78,0.0,0.0,65,0.00,,,0.00,Wunderground v.1.15,2013-09-11 15:25:00,
2013-09-11 10:30:00,81.3,67.5,30.08,East,89,0.0,1.0,63,0.00,,,0.00,Wunderground v.1.15,2013-09-11 15:30:00,
2013-09-11 10:35:00,81.2,67.9,30.08,East,89,0.0,1.0,64,0.00,,,0.00,Wunderground v.1.15,2013-09-11 15:35:00,
2013-09-11 10:45:00,82.0,68.2,30.08,East,90,0.0,0.0,63,0.00,,,0.00,Wunderground v.1.15,2013-09-11 15:45:00,
2013-09-11 10:55:00,82.5,68.6,30.08,East,87,0.0,0.0,63,0.00,,,0.00,Wunderground v.1.15,2013-09-11 15:55:00,
2013-09-11 11:00:00,83.2,68.3,30.09,East,87,0.0,0.0,61,0.00,,,0.00,Wunderground v.1.15,2013-09-11 16:00:00,
2013-09-11 11:05:00,83.7,68.3,30.09,East,87,0.0,0.0,60,0.00,,,0.00,Wunderground v.1.15,2013-09-11 16:05:00,
2013-09-11 11:15:00,83.4,68.5,30.09,East,87,0.0,0.0,61,0.00,,,0.00,Wunderground v.1.15,2013-09-11 16:15:00,
2013-09-11 11:20:00,83.2,69.3,30.09,East,87,0.0,0.0,63,0.00,,,0.00,Wunderground v.1.15,2013-09-11 16:20:00,
2013-09-11 11:25:00,83.1,70.6,30.09,East,87,0.0,0.0,66,0.00,,,0.00,Wunderground v.1.15,2013-09-11 16:25:00,
2013-09-11 11:35:00,82.1,69.2,30.08,East,87,0.0,0.0,65,0.00,,,0.00,Wunderground v.1.15,2013-09-11 16:35:00,
2013-09-11 11:45:00,82.1,69.2,30.08,East,87,0.0,0.0,65,0.00,,,0.00,Wunderground v.1.15,2013-09-11 16:45:00,
2013-09-11 11:50:00,82.0,69.1,30.09,East,87,0.0,0.0,65,0.00,,,0.00,Wunderground v.1.15,2013-09-11 16:50:00,
2013-09-11 12:00:00,80.5,68.1,30.09,North,350,2.0,6.0,66,0.00,,,0.00,Wunderground v.1.15,2013-09-11 17:00:00,
2013-09-11 12:05:00,80.1,67.7,30.09,North,350,1.0,6.0,66,0.00,,,0.00,Wunderground v.1.15,2013-09-11 17:05:00,
2013-09-11 12:15:00,79.9,67.5,30.09,NNW,329,0.0,2.0,66,0.00,,,0.00,Wunderground v.1.15,2013-09-11 17:15:00,
2013-09-11 12:20:00,79.7,67.3,30.09,NNW,329,0.0,0.0,66,0.00,,,0.00,Wunderground v.1.15,2013-09-11 17:20:00,
2013-09-11 12:25:00,79.7,67.8,30.09,NNW,338,0.0,0.0,67,0.00,,,0.00,Wunderground v.1.15,2013-09-11 17:25:00,
2013-09-11 12:30:00,79.5,68.0,30.09,NNW,338,0.0,1.0,68,0.00,,,0.00,Wunderground v.1.15,2013-09-11 17:30:00,
2013-09-11 12:35:00,79.1,68.9,30.09,NNW,340,1.0,1.0,71,0.00,,,0.00,Wunderground v.1.15,2013-09-11 17:35:00,
2013-09-11 12:40:00,78.2,69.2,30.09,NNW,338,1.0,1.0,74,0.00,,,0.00,Wunderground v.1.15,2013-09-11 17:40:00,
2013-09-11 12:45:00,77.8,70.4,30.10,NNW,339,0.0,1.0,78,0.00,,,0.00,Wunderground v.1.15,2013-09-11 17:45:00,
2013-09-11 12:55:00,76.7,69.7,30.09,NNW,338,0.0,0.0,79,0.00,,,0.00,Wunderground v.1.15,2013-09-11 17:55:00,
2013-09-11 13:00:00,76.5,70.2,30.09,NNW,339,0.0,0.0,81,0.00,,,0.00,Wunderground v.1.15,2013-09-11 18:00:00,
2013-09-11 13:05:00,76.1,69.8,30.09,NNW,338,0.0,0.0,81,0.00,,,0.00,Wunderground v.1.15,2013-09-11 18:05:00,
2013-09-11 13:15:00,75.4,69.5,30.09,NNW,339,0.0,0.0,82,0.00,,,0.00,Wunderground v.1.15,2013-09-11 18:15:00,
2013-09-11 13:25:00,75.5,70.0,30.08,NNW,339,0.0,0.0,83,0.00,,,0.00,Wunderground v.1.15,2013-09-11 18:25:00,
2013-09-11 13:30:00,75.5,69.6,30.08,NNW,338,0.0,0.0,82,0.00,,,0.00,Wunderground v.1.15,2013-09-11 18:30:00,
2013-09-11 13:35:00,75.8,69.9,30.08,NNW,339,0.0,0.0,82,0.00,,,0.00,Wunderground v.1.15,2013-09-11 18:35:00,
2013-09-11 13:40:00,76.0,69.7,30.08,NNW,339,1.0,1.0,81,0.00,,,0.00,Wunderground v.1.15,2013-09-11 18:40:00,
2013-09-11 13:45:00,76.1,69.5,30.08,NNW,340,0.0,1.0,80,0.00,,,0.00,Wunderground v.1.15,2013-09-11 18:45:00,
2013-09-11 13:50:00,76.2,69.6,30.08,NNW,340,0.0,0.0,80,0.00,,,0.00,Wunderground v.1.15,2013-09-11 18:50:00,
2013-09-11 14:00:00,76.7,68.9,30.08,NNW,340,0.0,0.0,77,0.00,,,0.00,Wunderground v.1.15,2013-09-11 19:00:00,
2013-09-11 14:05:00,77.2,69.4,30.08,NNW,340,0.0,0.0,77,0.00,,,0.00,Wunderground v.1.15,2013-09-11 19:05:00,
2013-09-11 14:15:00,79.0,68.8,30.08,NNW,341,0.0,0.0,71,0.00,,,0.00,Wunderground v.1.15,2013-09-11 19:15:00,
2013-09-11 14:20:00,80.0,69.3,30.08,NNW,338,0.0,0.0,70,0.00,,,0.00,Wunderground v.1.15,2013-09-11 19:20:00,
2013-09-11 14:25:00,81.2,70.1,30.08,NNW,338,0.0,0.0,69,0.00,,,0.00,Wunderground v.1.15,2013-09-11 19:25:00,
2013-09-11 14:35:00,82.1,69.6,30.07,NNW,348,0.0,0.0,66,0.00,,,0.00,Wunderground v.1.15,2013-09-11 19:35:00,
2013-09-11 14:40:00,81.9,69.4,30.07,NNW,346,0.0,0.0,66,0.00,,,0.00,Wunderground v.1.15,2013-09-11 19:40:00,
2013-09-11 14:50:00,82.1,69.2,30.07,NNW,346,0.0,0.0,65,0.00,,,0.00,Wunderground v.1.15,2013-09-11 19:50:00,
2013-09-11 14:55:00,82.4,69.0,30.07,NNW,344,0.0,0.0,64,0.00,,,0.00,Wunderground v.1.15,2013-09-11 19:55:00,
2013-09-11 15:00:00,83.2,70.2,30.07,NNW,344,0.0,0.0,65,0.00,,,0.00,Wunderground v.1.15,2013-09-11 20:00:00,
2013-09-11 15:05:00,84.1,69.2,30.06,NNW,344,0.0,0.0,61,0.00,,,0.00,Wunderground v.1.15,2013-09-11 20:05:00,
2013-09-11 15:15:00,84.5,69.1,30.06,NW,315,1.0,1.0,60,0.00,,,0.00,Wunderground v.1.15,2013-09-11 20:15:00,
2013-09-11 15:20:00,84.4,69.5,30.06,WSW,254,0.0,0.0,61,0.00,,,0.00,Wunderground v.1.15,2013-09-11 20:20:00,
2013-09-11 15:25:00,84.0,68.6,30.06,West,273,1.0,1.0,60,0.00,,,0.00,Wunderground v.1.15,2013-09-11 20:25:00,
2013-09-11 15:35:00,83.5,69.1,30.06,SSW,194,1.0,3.0,62,0.00,,,0.00,Wunderground v.1.15,2013-09-11 20:35:00,
2013-09-11 15:40:00,83.4,69.0,30.06,SW,232,1.0,1.0,62,0.00,,,0.00,Wunderground v.1.15,2013-09-11 20:40:00,
2013-09-11 15:45:00,83.2,68.8,30.06,NNW,333,1.0,2.0,62,0.00,,,0.00,Wunderground v.1.15,2013-09-11 20:45:00,
2013-09-11 15:50:00,83.3,68.9,30.06,West,276,1.0,1.0,62,0.00,,,0.00,Wunderground v.1.15,2013-09-11 20:50:00,
2013-09-11 15:55:00,83.4,68.5,30.06,SW,222,1.0,2.0,61,0.00,,,0.00,Wunderground v.1.15,2013-09-11 20:55:00,
2013-09-11 16:00:00,83.2,68.3,30.06,SSW,200,1.0,1.0,61,0.00,,,0.00,Wunderground v.1.15,2013-09-11 21:00:00,
2013-09-11 16:05:00,83.1,68.3,30.06,NNW,331,1.0,1.0,61,0.00,,,0.00,Wunderground v.1.15,2013-09-11 21:05:00,
2013-09-11 16:15:00,83.2,68.8,30.06,NNW,329,1.0,1.0,62,0.00,,,0.00,Wunderground v.1.15,2013-09-11 21:15:00,
2013-09-11 16:20:00,83.5,68.6,30.06,North,355,1.0,2.0,61,0.00,,,0.00,Wunderground v.1.15,2013-09-11 21:20:00,
2013-09-11 16:25:00,83.7,68.3,30.06,West,276,1.0,4.0,60,0.00,,,0.00,Wunderground v.1.15,2013-09-11 21:25:00,
2013-09-11 16:30:00,84.1,68.7,30.05,West,269,1.0,5.0,60,0.00,,,0.00,Wunderground v.1.15,2013-09-11 21:30:00,
2013-09-11 16:40:00,84.1,68.2,30.05,NW,321,1.0,1.0,59,0.00,,,0.00,Wunderground v.1.15,2013-09-11 21:40:00,
2013-09-11 16:50:00,83.7,68.3,30.05,NW,309,0.0,0.0,60,0.00,,,0.00,Wunderground v.1.15,2013-09-11 21:50:00,
2013-09-11 17:00:00,83.0,68.6,30.05,West,271,1.0,1.0,62,0.00,,,0.00,Wunderground v.1.15,2013-09-11 22:00:00,
2013-09-11 17:05:00,82.8,68.9,30.05,SSW,210,0.0,1.0,63,0.00,,,0.00,Wunderground v.1.15,2013-09-11 22:05:00,
2013-09-11 17:15:00,82.6,68.7,30.05,SW,229,0.0,0.0,63,0.00,,,0.00,Wunderground v.1.15,2013-09-11 22:15:00,
2013-09-11 17:25:00,82.5,69.1,30.05,SW,225,0.0,0.0,64,0.00,,,0.00,Wunderground v.1.15,2013-09-11 22:25:00,
2013-09-11 17:30:00,82.6,69.2,30.05,SW,225,0.0,0.0,64,0.00,,,0.00,Wunderground v.1.15,2013-09-11 22:30:00,
2013-09-11 17:35:00,82.7,69.3,30.05,SW,225,0.0,0.0,64,0.00,,,0.00,Wunderground v.1.15,2013-09-11 22:35:00,
2013-09-11 17:40:00,82.8,69.4,30.05,SW,225,0.0,0.0,64,0.00,,,0.00,Wunderground v.1.15,2013-09-11 22:40:00,
2013-09-11 17:45:00,82.9,69.5,30.05,SW,225,0.0,0.0,64,0.00,,,0.00,Wunderground v.1.15,2013-09-11 22:45:00,
2013-09-11 17:55:00,83.1,69.7,30.05,SW,225,0.0,0.0,64,0.00,,,0.00,Wunderground v.1.15,2013-09-11 22:55:00,
2013-09-11 18:00:00,83.0,70.0,30.05,SW,225,0.0,0.0,65,0.00,,,0.00,Wunderground v.1.15,2013-09-11 23:00:00,
2013-09-11 18:05:00,82.7,69.7,30.04,SW,225,0.0,0.0,65,0.00,,,0.00,Wunderground v.1.15,2013-09-11 23:05:00,
2013-09-11 18:15:00,82.2,69.7,30.04,SW,225,0.0,0.0,66,0.00,,,0.00,Wunderground v.1.15,2013-09-11 23:15:00,
2013-09-11 18:20:00,82.0,70.0,30.04,SW,225,0.0,0.0,67,0.00,,,0.00,Wunderground v.1.15,2013-09-11 23:20:00,
2013-09-11 18:30:00,81.0,70.3,30.04,SW,225,0.0,0.0,70,0.00,,,0.00,Wunderground v.1.15,2013-09-11 23:30:00,
2013-09-11 18:35:00,80.4,70.1,30.04,SW,225,0.0,0.0,71,0.00,,,0.00,Wunderground v.1.15,2013-09-11 23:35:00,
2013-09-11 18:40:00,79.7,69.5,30.04,NW,315,0.0,2.0,71,0.00,,,0.00,Wunderground v.1.15,2013-09-11 23:40:00,
2013-09-11 18:50:00,79.3,68.7,30.04,NNW,335,0.0,0.0,70,0.00,,,0.00,Wunderground v.1.15,2013-09-11 23:50:00,
2013-09-11 18:55:00,79.1,68.1,30.04,NNW,334,0.0,0.0,69,0.00,,,0.00,Wunderground v.1.15,2013-09-11 23:55:00,
2013-09-11 19:05:00,78.9,67.9,30.04,NNW,334,0.0,0.0,69,0.00,,,0.00,Wunderground v.1.15,2013-09-12 00:05:00,
2013-09-11 19:15:00,78.7,67.7,30.04,NNW,334,0.0,0.0,69,0.00,,,0.00,Wunderground v.1.15,2013-09-12 00:15:00,
2013-09-11 19:25:00,78.2,68.4,30.04,NNW,335,0.0,0.0,72,0.00,,,0.00,Wunderground v.1.15,2013-09-12 00:25:00,
2013-09-11 19:30:00,77.8,68.0,30.04,NNW,334,0.0,0.0,72,0.00,,,0.00,Wunderground v.1.15,2013-09-12 00:30:00,
2013-09-11 19:40:00,76.7,67.8,30.04,NNW,334,0.0,0.0,74,0.00,,,0.00,Wunderground v.1.15,2013-09-12 00:40:00,
2013-09-11 19:45:00,76.0,67.5,30.04,NNW,334,0.0,0.0,75,0.00,,,0.00,Wunderground v.1.15,2013-09-12 00:45:00,
2013-09-11 19:55:00,74.7,67.0,30.04,NNW,334,0.0,0.0,77,0.00,,,0.00,Wunderground v.1.15,2013-09-12 00:55:00,
2013-09-11 20:00:00,74.2,66.9,30.04,NNW,334,0.0,0.0,78,0.00,,,0.00,Wunderground v.1.15,2013-09-12 01:00:00,
2013-09-11 20:05:00,73.8,66.9,30.04,NNW,334,0.0,0.0,79,0.00,,,0.00,Wunderground v.1.15,2013-09-12 01:05:00,
2013-09-11 20:15:00,73.1,66.6,30.04,NNW,334,0.0,0.0,80,0.00,,,0.00,Wunderground v.1.15,2013-09-12 01:15:00,
2013-09-11 20:20:00,72.8,66.3,30.03,NNW,334,0.0,0.0,80,0.00,,,0.00,Wunderground v.1.15,2013-09-12 01:20:00,
2013-09-11 20:30:00,72.4,66.2,30.04,NNW,334,0.0,0.0,81,0.00,,,0.00,Wunderground v.1.15,2013-09-12 01:30:00,
2013-09-11 20:35:00,72.1,65.9,30.04,NNW,334,0.0,0.0,81,0.00,,,0.00,Wunderground v.1.15,2013-09-12 01:35:00,
2013-09-11 20:40:00,71.8,66.0,30.05,NNW,335,0.0,0.0,82,0.00,,,0.00,Wunderground v.1.15,2013-09-12 01:40:00,
2013-09-11 20:50:00,71.2,65.8,30.05,NNW,334,0.0,0.0,83,0.00,,,0.00,Wunderground v.1.15,2013-09-12 01:50:00,
2013-09-11 20:55:00,70.9,65.5,30.05,NNW,335,0.0,0.0,83,0.00,,,0.00,Wunderground v.1.15,2013-09-12 01:55:00,
2013-09-11 21:00:00,70.5,65.1,30.05,NNW,334,0.0,0.0,83,0.00,,,0.00,Wunderground v.1.15,2013-09-12 02:00:00,
2013-09-11 21:05:00,70.2,65.1,30.05,NNW,335,0.0,0.0,84,0.00,,,0.00,Wunderground v.1.15,2013-09-12 02:05:00,
2013-09-11 21:15:00,69.4,64.7,30.05,NNW,334,0.0,0.0,85,0.00,,,0.00,Wunderground v.1.15,2013-09-12 02:15:00,
2013-09-11 21:20:00,68.9,64.5,30.05,NNW,334,0.0,0.0,86,0.00,,,0.00,Wunderground v.1.15,2013-09-12 02:20:00,
2013-09-11 21:25:00,68.5,64.1,30.06,NNW,334,0.0,0.0,86,0.00,,,0.00,Wunderground v.1.15,2013-09-12 02:25:00,
2013-09-11 21:30:00,68.2,64.2,30.06,NNW,335,0.0,0.0,87,0.00,,,0.00,Wunderground v.1.15,2013-09-12 02:30:00,
2013-09-11 21:35:00,67.9,63.9,30.06,NNW,334,0.0,0.0,87,0.00,,,0.00,Wunderground v.1.15,2013-09-12 02:35:00,
2013-09-11 21:45:00,67.3,63.6,30.05,NNW,335,0.0,0.0,88,0.00,,,0.00,Wunderground v.1.15,2013-09-12 02:45:00,
2013-09-11 21:50:00,67.0,63.3,30.05,NNW,335,0.0,0.0,88,0.00,,,0.00,Wunderground v.1.15,2013-09-12 02:50:00,
2013-09-11 21:55:00,66.8,63.1,30.05,NNW,335,0.0,0.0,88,0.00,,,0.00,Wunderground v.1.15,2013-09-12 02:55:00,
2013-09-11 22:00:00,66.6,63.3,30.05,NNW,334,0.0,0.0,89,0.00,,,0.00,Wunderground v.1.15,2013-09-12 03:00:00,
2013-09-11 22:05:00,66.4,62.7,30.05,NNW,335,0.0,0.0,88,0.00,,,0.00,Wunderground v.1.15,2013-09-12 03:05:00,
2013-09-11 22:15:00,66.1,62.8,30.06,NNW,334,0.0,0.0,89,0.00,,,0.00,Wunderground v.1.15,2013-09-12 03:15:00,
2013-09-11 22:20:00,65.9,62.6,30.06,NNW,335,0.0,0.0,89,0.00,,,0.00,Wunderground v.1.15,2013-09-12 03:20:00,
2013-09-11 22:25:00,65.6,62.3,30.06,NNW,335,0.0,0.0,89,0.00,,,0.00,Wunderground v.1.15,2013-09-12 03:25:00,
2013-09-11 22:30:00,65.4,62.1,30.06,NNW,335,0.0,0.0,89,0.00,,,0.00,Wunderground v.1.15,2013-09-12 03:30:00,
2013-09-11 22:40:00,65.1,61.8,30.06,NNW,334,0.0,0.0,89,0.00,,,0.00,Wunderground v.1.15,2013-09-12 03:40:00,
2013-09-11 22:45:00,64.9,61.6,30.06,NNW,334,0.0,0.0,89,0.00,,,0.00,Wunderground v.1.15,2013-09-12 03:45:00,
2013-09-11 22:50:00,64.8,61.8,30.06,NNW,335,0.0,0.0,90,0.00,,,0.00,Wunderground v.1.15,2013-09-12 03:50:00,
2013-09-11 22:55:00,64.6,61.6,30.05,NNW,335,0.0,0.0,90,0.00,,,0.00,Wunderground v.1.15,2013-09-12 03:55:00,
2013-09-11 23:00:00,64.4,61.4,30.05,NNW,334,0.0,0.0,90,0.00,,,0.00,Wunderground v.1.15,2013-09-12 04:00:00,
2013-09-11 23:05:00,64.2,61.2,30.05,NNW,335,0.0,0.0,90,0.00,,,0.00,Wunderground v.1.15,2013-09-12 04:05:00,
2013-09-11 23:10:00,64.1,61.1,30.06,NNW,334,0.0,0.0,90,0.00,,,0.00,Wunderground v.1.15,2013-09-12 04:10:00,
2013-09-11 23:15:00,63.9,60.9,30.06,NNW,334,0.0,0.0,90,0.00,,,0.00,Wunderground v.1.15,2013-09-12 04:15:00,
2013-09-11 23:25:00,63.7,60.7,30.06,NNW,334,0.0,0.0,90,0.00,,,0.00,Wunderground v.1.15,2013-09-12 04:25:00,
2013-09-11 23:30:00,63.6,60.6,30.06,NNW,335,0.0,0.0,90,0.00,,,0.00,Wunderground v.1.15,2013-09-12 04:30:00,
2013-09-11 23:35:00,63.6,60.9,30.06,NNW,334,0.0,0.0,91,0.00,,,0.00,Wunderground v.1.15,2013-09-12 04:35:00,
2013-09-11 23:40:00,63.6,60.9,30.06,NNW,335,0.0,0.0,91,0.00,,,0.00,Wunderground v.1.15,2013-09-12 04:40:00,
2013-09-11 23:45:00,63.5,60.8,30.06,NNW,335,0.0,0.0,91,0.00,,,0.00,Wunderground v.1.15,2013-09-12 04:45:00,
2013-09-11 23:55:00,63.4,60.7,30.05,NNW,334,0.0,0.0,91,0.00,,,0.00,Wunderground v.1.15,2013-09-12 04:55:00,